www.pogodaiklimat.ru

Погода и климат >> Архив погоды >> Австралия >> Западная Австралия >> Мандора


ПОГОДА в Мандоре

  • Прогноз погоды в Мандоре
  • Монитор погоды в Мандоре

АРХИВ ПОГОДЫ в Мандоре

Время (UTC), дата Ветер
(напр.,м/с)
 
Видим.   Явления Облачность Т
(С)
Тd
(С)
f
(%)
Тe
(С)
Тes
(С)
Комфортность P
(гПа)
Po
(гПа)
Тmin
(С)
Tmax
(С)
R
(мм)
R24
(мм)
S
(см)
19 10.06 ЮЗ 3 н/о н/о +17.7 +14.8 83 +18 +18 1013.3 1012.4
21 10.06 ЮЗ 4 н/о н/о +19.0 +10.8 59 +20 +20 1013.9 1013.0
22 10.06 Ю 4 н/о н/о +16.8 +13.3 80 +16 +16 1014.3 1013.4
00 11.06 ЮЗ 5 н/о н/о +21.5 +11.8 54 +24 +24 комфорт 1015.5 1014.6
01 11.06 ЮЗ 4 н/о н/о +22.4 +11.2 49 +25 +25 комфорт 1015.9 1015.0 +16.8
03 11.06 ЮЗ 5 н/о н/о +25.8 +13.0 45 +28 +28 жарко 1015.4 1014.5
04 11.06 З 5 н/о н/о +25.4 +14.2 50 +28 +28 жарко 1015.3 1014.4
06 11.06 З 4 н/о н/о +23.6 +13.8 54 +26 +26 жарко 1014.6 1013.7
07 11.06 СЗ 4 н/о н/о +23.4 +13.6 54 +27 +27 душно 1014.5 1013.6
09 11.06 З 2 н/о н/о +21.9 +13.5 59 +25 +25 комфорт 1015.3 1014.4
10 11.06 З 3 н/о н/о +20.2 +14.6 70 +23 +23 комфорт 1016.1 1015.2
12 11.06 ЮЗ 3 н/о н/о +19.2 +13.2 68 +21 +21 комфорт 1017.5 1016.6
13 11.06 ЮЗ 2 н/о н/о +17.7 +12.6 72 +18 +18 1017.6 1016.7 +26.9
15 11.06 ЮЗ 4 н/о н/о +18.1 +12.3 69 +18 +18 1017.4 1016.5
16 11.06 Ю 5 н/о н/о +18.7 +11.8 64 +19 +19 1017.6 1016.7
18 11.06 Ю 4 н/о н/о +16.6 +7.8 56 +16 +16 1017.1 1016.2
19 11.06 ЮВ 4 н/о н/о +16.0 +6.4 53 +15 +15 1017.1 1016.2
21 11.06 Ю 6 н/о н/о +15.1 +5.6 53 +14 +14 1017.4 1016.5
22 11.06 ЮВ 4 н/о н/о +14.4 +5.5 55 +13 +13 1018.4 1017.5
00 12.06 ЮВ 6 н/о н/о +16.6 +5.6 48 +16 +16 1020.0 1019.1
01 12.06 ЮВ 6 н/о н/о +18.9 +5.0 40 +19 +19 1020.6 1019.7 +14.3
03 12.06 ЮВ 5 н/о н/о +23.2 +4.2 29 +23 +23 комфорт 1019.7 1018.8
04 12.06 ЮВ 5 н/о н/о +24.8 +4.5 27 +24 +24 комфорт 1018.5 1017.6
06 12.06 ЮВ 5 н/о н/о +26.8 +4.6 24 +26 +26 жарко 1016.8 1015.9
07 12.06 ЮВ 5 н/о н/о +26.8 +3.3 22 +25 +25 комфорт 1016.4 1015.5
09 12.06 ЮВ 3 н/о н/о +24.7 +2.8 24 +24 +24 комфорт 1016.3 1015.4
10 12.06 Ю 3 н/о н/о +20.1 +2.0 30 +21 +21 комфорт 1017.1 1016.2
12 12.06 Ю 4 н/о н/о +17.9 +0.1 30 +18 +18 1018.1 1017.2
13 12.06 Ю 4 н/о н/о +17.3 -0.9 29 +17 +17 1018.4 1017.5 +27.5
15 12.06 Ю 4 н/о н/о +16.0 -1.1 31 +15 +15 1018.4 1017.5
16 12.06 Ю 4 н/о н/о +15.4 -0.8 33 +15 +15 1018.4 1017.5
18 12.06 ЮВ 4 н/о н/о +16.1 -0.6 32 +16 +16 1017.3 1016.4
19 12.06 Ю 4 н/о н/о +15.6 -0.2 34 +15 +15 1016.9 1016.0
21 12.06 ЮВ 4 н/о н/о +15.4 -0.4 34 +15 +15 1017.0 1016.1
22 12.06 ЮВ 4 н/о н/о +15.3 -0.4 34 +14 +14 1017.5 1016.6
00 13.06 ЮВ 5 н/о н/о +18.7 -0.2 28 +18 +18 1018.6 1017.7
01 13.06 ЮВ 7 н/о н/о +21.5 +0.1 24 +21 +21 комфорт 1019.1 1018.2 +15.0
03 13.06 ЮВ 6 н/о н/о +25.7 -0.4 18 +24 +24 комфорт 1017.8 1016.9
04 13.06 ЮВ 5 н/о н/о +27.4 +1.0 18 +25 +25 комфорт 1016.7 1015.8
06 13.06 ЮВ 4 н/о н/о +29.2 +1.7 17 +27 +27 жарко 1014.9 1014.0
07 13.06 ЮВ 4 н/о н/о +29.2 +0.8 16 +27 +27 жарко 1014.6 1013.7
09 13.06 ЮВ 3 н/о н/о +27.3 +0.9 18 +25 +25 комфорт 1015.4 1014.5
10 13.06 Ю 3 н/о н/о +24.1 -0.2 20 +23 +23 комфорт 1015.9 1015.0
12 13.06 Ю 4 н/о н/о +20.5 -2.5 21 +20 +20 1017.2 1016.3
13 13.06 Ю 4 н/о н/о +20.5 -5.4 17 +20 +20 1017.4 1016.5 +30.2
15 13.06 ЮВ 3 н/о н/о +19.7 -6.8 16 +20 +20 1017.3 1016.4
16 13.06 ЮВ 4 н/о н/о +19.2 -7.2 16 +19 +19 1017.1 1016.2
18 13.06 ЮВ 4 н/о н/о +18.9 -6.7 17 +19 +19 1016.3 1015.4
19 13.06 ЮВ 4 н/о н/о +18.4 -6.3 18 +18 +18 1016.1 1015.2
21 13.06 ЮВ 4 н/о н/о +17.3 -5.2 21 +17 +17 1016.3 1015.4
22 13.06 ЮВ 4 н/о н/о +16.8 -5.0 22 +16 +16 1016.6 1015.7
00 14.06 ЮВ 6 н/о н/о +19.2 -4.3 20 +19 +19 1017.9 1017.0
01 14.06 ЮВ 6 н/о н/о +22.3 -3.9 17 +21 +21 комфорт 1018.2 1017.3 +16.6
03 14.06 ЮВ 5 н/о н/о +26.7 -5.0 12 +24 +24 комфорт 1016.8 1015.9
04 14.06 ЮВ 6 н/о н/о +27.6 -5.5 11 +25 +25 комфорт 1015.5 1014.6
06 14.06 ЮВ 4 н/о н/о +30.6 -4.4 10 +27 +27 жарко 1013.7 1012.8
07 14.06 Ю 4 н/о н/о +29.8 -6.4 9 +26 +26 жарко 1013.5 1012.6
09 14.06 ЮВ 3 н/о н/о +28.3 -6.2 10 +25 +25 комфорт 1014.0 1013.1
10 14.06 Ю 3 н/о н/о +23.5 -3.7 16 +22 +22 комфорт 1015.0 1014.1
12 14.06 Ю 4 н/о н/о +22.1 -7.6 13 +20 +20 1016.1 1015.2
13 14.06 Ю 4 н/о н/о +20.6 -6.9 15 +20 +20 1016.4 1015.5 +30.9
15 14.06 Ю 4 н/о н/о +17.8 -6.1 19 +18 +18 1016.5 1015.6
16 14.06 Ю 4 н/о н/о +18.1 -5.9 19 +18 +18 1016.3 1015.4
18 14.06 Ю 5 н/о н/о +17.9 -6.0 19 +18 +18 1016.3 1015.4
19 14.06 Ю 3 н/о н/о +17.2 -5.3 21 +17 +17 1016.1 1015.2
21 14.06 ЮВ 4 н/о н/о +16.6 -4.0 24 +16 +16 1016.6 1015.7
22 14.06 ЮВ 4 н/о н/о +16.1 -3.4 26 +16 +16 1017.3 1016.4
00 15.06 ЮВ 6 н/о н/о +18.6 -2.3 24 +18 +18 1018.6 1017.7
01 15.06 ЮВ 7 н/о н/о +21.3 -2.5 20 +21 +21 комфорт 1019.1 1018.2 +15.8
03 15.06 ЮВ 7 н/о н/о +25.6 -3.8 14 +23 +23 комфорт 1017.9 1017.0
04 15.06 ЮВ 6 н/о н/о +26.9 -3.8 13 +24 +24 комфорт 1016.6 1015.7
06 15.06 ЮВ 6 н/о н/о +28.7 -5.9 10 +25 +25 комфорт 1014.7 1013.8
07 15.06 ЮВ 5 н/о н/о +29.1 -5.6 10 +26 +26 жарко 1014.6 1013.7
09 15.06 ЮВ 4 н/о н/о +26.2 -6.5 11 +23 +23 комфорт 1015.3 1014.4
10 15.06 ЮВ 3 н/о н/о +23.5 -5.5 14 +22 +22 комфорт 1016.1 1015.2
12 15.06 ЮВ 3 н/о н/о +18.9 -3.3 22 +19 +19 1017.5 1016.6
13 15.06 ЮВ 3 н/о н/о +17.6 -2.6 25 +18 +18 1017.8 1016.9 +29.5
15 15.06 ЮВ 3 н/о н/о +17.1 -2.0 27 +17 +17 1017.5 1016.6
16 15.06 ЮВ 4 н/о н/о +17.2 -1.9 27 +17 +17 1017.5 1016.6
18 15.06 ЮВ 4 н/о н/о +17.1 -2.0 27 +17 +17 1017.1 1016.2
19 15.06 ЮВ 4 н/о н/о +16.6 -2.0 28 +16 +16 1017.0 1016.1
21 15.06 ЮВ 3 н/о н/о +14.5 -2.0 32 +14 +14 1017.5 1016.6
22 15.06 ЮВ 3 н/о н/о +13.3 -1.8 35 +12 +12 1018.2 1017.3
00 16.06 ЮВ 5 н/о н/о +17.8 -0.9 28 +17 +17 1019.2 1018.3
01 16.06 ЮВ 7 н/о н/о +20.8 -1.1 23 +20 +20 1019.6 1018.7 +12.0
03 16.06 В 6 н/о н/о +25.0 -0.2 19 +23 +23 комфорт 1018.3 1017.4
04 16.06 В 6 н/о н/о +26.3 -1.5 16 +24 +24 комфорт 1017.1 1016.2
06 16.06 ЮВ 5 н/о н/о +28.5 -3.6 12 +25 +25 комфорт 1015.1 1014.2
07 16.06 Ю 5 н/о н/о +28.6 -3.6 12 +26 +26 жарко 1014.5 1013.6
09 16.06 ЮВ 3 н/о н/о +26.6 -4.0 13 +24 +24 комфорт 1015.1 1014.2
10 16.06 Ю 3 н/о н/о +21.7 -4.4 17 +21 +21 комфорт 1015.8 1014.9
12 16.06 Ю 4 н/о н/о +18.5 -3.0 23 +19 +19 1017.1 1016.2
13 16.06 Ю 4 н/о н/о +18.1 -2.2 25 +18 +18 1017.4 1016.5 +29.3
15 16.06 Ю 4 н/о н/о +16.4 -2.6 27 +16 +16 1017.2 1016.3
16 16.06 Ю 4 н/о н/о +16.5 -2.5 27 +16 +16 1017.0 1016.1
18 16.06 Ю 4 н/о н/о +16.5 -2.0 28 +16 +16 1016.3 1015.4
19 16.06 Ю 5 н/о н/о +17.0 -2.1 27 +16 +16 1016.3 1015.4
21 16.06 ЮВ 4 н/о н/о +16.7 -1.9 28 +16 +16 1016.3 1015.4
22 16.06 ЮВ 4 н/о н/о +16.3 -1.7 29 +16 +16 1016.8 1015.9
00 17.06 ЮВ 6 н/о н/о +19.5 -1.0 25 +19 +19 1018.1 1017.2
01 17.06 ЮВ 5 н/о н/о +22.0 -1.3 21 +21 +21 комфорт 1018.3 1017.4 +15.9
03 17.06 ЮВ 6 н/о н/о +27.2 -0.8 16 +25 +25 комфорт 1017.0 1016.1
04 17.06 ЮВ 5 н/о н/о +29.5 +0.2 15 +27 +27 жарко 1015.8 1014.9
06 17.06 ЮВ 5 н/о н/о +30.5 -1.0 13 +27 +27 жарко 1013.6 1012.7
07 17.06 ЮВ 4 н/о н/о +31.0 -0.6 13 +28 +28 жарко 1013.4 1012.5
09 17.06 ЮВ 3 н/о н/о +28.6 +0.3 16 +26 +26 жарко 1013.8 1012.9
10 17.06 СЗ 2 н/о н/о +20.3 +3.5 33 +22 +22 комфорт 1014.2 1013.3
12 17.06 Ю 4 н/о н/о +20.5 +0.4 26 +21 +21 комфорт 1015.1 1014.2
13 17.06 ЮВ 3 н/о н/о +19.7 +0.7 28 +20 +20 1015.5 1014.6 +31.4
15 17.06 Ю 4 н/о н/о +20.6 -0.1 25 +21 +21 комфорт 1015.5 1014.6

 

Местоположение метеостанции Мандора (Западная Австралия, Австралия): широта -19.73 долгота 120.85 высота над уровнем моря 8 м.

В архиве по умолчанию представлена погода в Мандоре за последнюю неделю. Архивные данные за месяц целиком и за предыдущие месяцы, начиная с января 2011 года, Вы можете получить, выбрав интересующий диапазон дат из раскрывающегося списка и нажав кнопку "Ввод!".


*Определитесь, кто Вы:
робот инопланетянин человек

Внимание! Время в таблицах - всемирное. Для получения местного времени необходимо прибавить поправку, которая равна 8 ч.

Смотрите также архив погоды в соседних городах и на ближайших метеорологических станциях:

Погода в Марбл-баре (Западная Австралия, Австралия) (198 км)
Погода в Порт-Хедленде Apardoo (Западная Австралия, Австралия) (242 км)
Погода в Бруме (Западная Австралия, Австралия) (246 км)
Погода в Робак Запад (Западная Австралия, Австралия) (256 км)
Погода в Телфере (Западная Австралия, Австралия) (262 км)
Погода в Роули Шоалс (Западная Австралия, Австралия) (316 км)
Погода на Базе ВВС Curtin (Западная Австралия, Австралия) (394 км)
Погода в Дерби (Северная территория, Австралия) (397 км)
Погода в Роборн аэропорту (Западная Австралия, Австралия) (402 км)
Погода в Ньюмане (Западная Австралия, Австралия) (423 км)

Пояснения к столбцам:

Ветер - указаны скорость ветра в м/с - средняя за 10 мин, порывы в срок и между сроками (в фигурных скобках) и направление, откуда дует ветер: С - северный, СВ - северо-восточный, В - восточный, ЮВ - юго-восточный, Ю - южный, ЮЗ - юго-западный, З - западный, СЗ - северо-западный.
Видимость - горизонтальная дальность видимости в метрах или километрах. При видимости от 1 до 10 км при отсутствии осадков обычно наблюдается дымка, при ухудшении видимости до 1 км и менее - туман. В сухую погоду видимость может ухудшаться дымом, пылью или мглою.
Явления - указаны атмосферные явления, наблюдавшиеся в срок или в последний час перед сроком; фигурными скобками обозначены явления, наблюдавшиеся между сроками (за 1-3 часа до срока); квадратными скобками обозначены град или гололедные отложения с указанием их диаметра в мм.
Облачность - указаны через наклонную черту общая и нижняя облачность в баллах и высота нижней границы облаков в метрах; квадратными скобками обозначены формы облаков: Ci - перистые, Cs - перисто-слоистые, Cc - перисто-кучевые, Ac - высококучевые, As - высокослоистые, Sc - слоисто-кучевые, Ns - слоисто-дождевые, Cu - кучевые, Cb - кучево-дождевые. Подробнее классификацию облаков см. в Атласе облаков (PDF).
T - Температура воздуха - температура, измеренная на высоте 2 м над землей.
Td - Температура точки росы - температура, при понижении до которой содержащийся в воздухе водяной пар достигнет насыщения.
f - Относительная влажность воздуха - влажноcть воздуха, измеренная на высоте 2 м над землей.
Te - Эффективная температура - температура, которую ощущает одетый по сезону человек в тени. Характеристика душности погоды. При расчете учитывается влияние влажности воздуха и скорости ветра на теплоощущения человека.
Tes - Эффективная температура на солнце - температура, которую ощущает человек, с поправкой на солнечный нагрев. Характеристика знойности погоды. Зависит от высоты солнца над горизонтом, облачности и скорости ветра. Ночью, в пасмурную погоду, а также при ветре 12 м/с и более поправка равна нулю.
P - Атмосферное давление - приведенное к уровню моря атмосферное давление.
Po - Атмосферное давление - измеренное на уровне метеостанции атмосферное давление.
Tmin - Минимальная температура - минимум температуры воздуха на высоте 2 м над землей.
Tmax - Максимальная температура - максимум температуры воздуха на высоте 2 м над землей.
R - Количество осадков - Количество выпавших осадков за период времени, мм. При наведении курсора мыши на число - период времени, за который выпало указанное количество осадков.
R24 - Количество осадков - Количество выпавших осадков за 24 часа, мм.
S - Снежный покров - Высота снежного покрова, см. При наведении курсора мыши на число - состояние снежного покрова и степень покрытия местности в баллах.